Simultaneous Nadir Overpasses (SNOs) Predictions

Prediction of SNOs between LANDSAT-8 and METOP-B Satellite Orbit:

Table of predicted SNOs for the next 14.0 days since TLE Epoch: 7/17/2021
Index Date (LANDSAT-8) Time (LANDSAT-8) Lat,Lon (LANDSAT-8) SZA (LANDSAT-8 ) Date (METOP-B) Time (METOP-B) Lat,Lon (METOP-B) SZA (METOP-B ) Distance(km) Time Diff (sec)
1 07/18/2021 14:31:37 -81.11,-178.02 117.81 07/18/2021 14:31:21 -81.11,-178.20 117.84 3.10 16
2 07/18/2021 15:21:02 81.14, -9.91 62.27 07/18/2021 15:21:59 81.14, -9.89 62.30 0.32 57
3 07/21/2021 10:05:54 -81.11,-111.58 117.29 07/21/2021 10:05:44 -81.11,-111.72 117.31 2.40 10
4 07/21/2021 10:55:18 81.14, 56.50 62.79 07/21/2021 10:56:21 81.14, 56.58 62.83 1.44 63
5 07/24/2021 05:40:10 -81.11, -45.17 116.72 07/24/2021 05:40:06 -81.11, -45.26 116.73 1.57 4
6 07/24/2021 06:29:35 81.14, 122.88 63.35 07/24/2021 06:30:44 81.14, 123.04 63.40 2.89 69
7 07/27/2021 00:25:00 81.11,-146.44 63.88 07/27/2021 00:23:49 81.10,-146.53 63.83 1.61 71
8 07/27/2021 01:14:26 -81.13, 21.59 116.06 07/27/2021 01:14:28 -81.13, 21.57 116.07 0.72 2
9 07/29/2021 19:59:17 81.10, -80.10 64.52 07/29/2021 19:58:12 81.10, -80.09 64.49 0.19 65



Historial Predications of SNOs between LANDSAT-8 and METOP-B
